EW9959 Weather Reports


time (UTC)temp
C
wind
direction
speed
KPH
gust
KPH
rain 1hr
cm
rain 24hr
cm
rain mn
cm
humidity
%
barometer
mb
20260906120905 17 137 1.6 3.2 0.00 0.00 0.00 99 986.4
20260906120406 17 202 1.6 3.2 0.00 0.00 0.00 99 986.6
20260906110905 16 279 0.0 0.0 0.00 0.00 0.00 99 986.4
20260906110407 16 270 0.0 0.0 0.00 0.00 0.00 99 986.1
20260906100905 16 188 0.0 0.0 0.00 0.00 0.00 99 985.8
20260906090905 16 199 0.0 0.0 0.00 0.00 0.00 99 986.2
20260906090405 16 180 0.0 1.6 0.00 0.00 0.00 98 986.1
20260906080907 16 305 0.0 0.0 0.00 0.00 0.00 96 985.7
20260906080406 16 202 0.0 0.0 0.00 0.00 0.00 97 985.6
20260906070905 16 202 0.0 0.0 0.00 0.00 0.00 95 985.5
20260906060905 17 270 1.6 3.2 0.00 0.00 0.00 92 986.0
20260906050905 17 174 0.0 0.0 0.00 0.00 0.00 90 986.2
20260906050406 17 193 0.0 3.2 0.00 0.00 0.00 90 986.4
20260906040905 18 180 0.0 0.0 0.00 0.00 0.00 87 986.5
20260906040408 18 292 1.6 1.6 0.00 0.00 0.00 86 986.6
20260906030904 20 121 0.0 0.0 0.00 0.00 0.00 81 986.5
20260906030404 20 171 0.0 3.2 0.00 0.00 0.00 80 986.4
20260906020905 21 263 3.2 3.2 0.00 0.00 0.00 77 986.2
20260906020408 21 270 0.0 3.2 0.00 0.00 0.00 76 986.0
20260906010405 22 267 0.0 1.6 0.00 0.00 0.00 71 985.1
20260906000905 25 269 1.6 1.6 0.00 0.00 0.00 62 984.7
20260906000405 25 218 1.6 8.0 0.00 0.00 0.00 61 984.9
20260905230905 30 219 3.2 3.2 0.00 0.00 0.00 50 984.3
20260905230405 30 290 3.2 14.5 0.00 0.00 0.00 48 984.0
20260905220904 37 208 4.8 8.0 0.00 0.00 0.00 33 984.1
20260905210406 38 273 3.2 11.3 0.00 0.00 0.00 30 984.1
20260905200904 36 168 3.2 4.8 0.00 0.00 0.00 36 984.7
20260905200404 37 265 3.2 9.7 0.00 0.00 0.00 33 984.8
20260905190905 37 268 3.2 8.0 0.00 0.00 0.00 37 985.5
20260905190406 36 191 4.8 8.0 0.00 0.00 0.00 38 985.5
20260905180905 31 194 0.0 1.6 0.00 0.00 0.00 51 986.5
20260905180404 30 221 1.6 9.7 0.00 0.00 0.00 50 986.6
20260905170904 35 230 3.2 3.2 0.00 0.00 0.00 42 987.3
20260905170404 35 145 6.4 9.7 0.00 0.00 0.00 41 987.3
20260905160905 32 137 3.2 8.0 0.00 0.00 0.00 50 988.0
20260905160404 32 193 3.2 9.7 0.00 0.00 0.00 49 987.8
20260905150905 30 289 4.8 8.0 0.00 0.00 0.00 56 988.1
20260905150404 28 295 3.2 9.7 0.00 0.00 0.00 60 988.2
20260905140404 21 274 1.6 4.8 0.00 0.00 0.00 85 988.4
20260905130904 17 47 0.0 1.6 0.00 0.00 0.00 98 988.7
20260905130404 17 209 1.6 3.2 0.00 0.00 0.00 99 988.9